Location: Skalnate Pleso
(49.1889°N, 20.2450°E)
Time: 03:12:55
(UTC+02:00)

Cosmos 1269 Rocket - Pass Details

Date: 25 February 2020
Orbit: 772 x 780 km, 74.1° (Epoch: 28 March)

Event Time Altitude Azimuth Distance (km) Brightness Sun altitude
Exits shadow 02:36:26 17° 8° (N) 1,907 6.4 -37.5°
Drops below altitude 10° 02:37:38 10° 14° (NNE) 2,332 7.0 -37.4°
Sets 02:40:08 0° 21° (NNE) 3,265 7.9 -37.0°
